Wind_Speed
14 15 16 17 17 17 17 17 17 17 17 17 17 16 16 15 14 12 11 10 8 6 4 3 4 5 6 8 10 13 15 17 17 19 20 21 22 23 24 26 26 26 27
16 17 17 18 18 18 19 19 18 18 18 18 17 17 16 15 14 12 11 10 9 7 5 4 5 6 7 8 10 12 14 15 16 17 18 20 21 22 24 25 25 26 26
17 18 19 19 20 20 20 20 20 19 19 18 18 17 17 15 14 13 11 10 9 8 7 6 6 7 8 9 10 12 13 14 15 16 17 19 20 21 22 23 24 26 26
18 19 20 20 21 21 22 22 21 21 20 20 19 19 18 17 15 14 13 11 10 9 9 8 7 8 9 10 12 13 13 14 15 16 17 17 18 20 21 22 22 24 25
20 21 22 22 23 23 23 23 23 23 22 22 21 20 19 19 17 16 15 13 12 11 11 10 9 9 10 12 13 14 14 15 16 16 17 17 18 19 20 20 22 23 24
23 24 24 25 25 25 25 25 24 24 24 24 23 22 21 20 20 19 17 16 15 14 13 13 13 12 12 12 13 14 15 16 17 17 17 18 18 18 19 20 21 22 23
25 26 27 28 28 28 27 27 26 26 26 26 25 25 24 23 22 21 20 19 18 17 16 16 15 15 15 15 15 16 16 17 18 19 19 19 19 19 20 21 21 22 22
27 28 29 30 30 30 30 30 29 29 29 28 28 28 27 27 26 24 23 22 21 20 20 19 18 18 18 17 17 17 18 18 19 18 19 19 20 20 20 21 22 22 23
30 31 32 32 33 33 33 33 33 33 32 32 31 31 30 29 29 28 27 26 25 24 23 22 21 21 20 20 20 20 19 20 20 20 20 19 19 19 19 20 21 23 23
34 34 34 35 36 36 36 36 37 36 36 35 34 34 33 32 32 31 31 29 28 28 26 25 25 24 24 23 23 22 22 21 21 21 21 21 21 20 20 20 20 21 22
37 37 38 39 39 39 39 39 39 39 39 38 38 37 36 36 35 35 34 33 32 31 30 29 28 27 27 26 26 25 24 24 23 23 22 22 22 22 22 21 21 21 22
40 41 42 43 43 43 42 42 41 41 41 41 40 40 40 39 38 38 37 36 35 35 34 33 31 31 30 29 29 28 27 27 26 25 25 24 24 24 24 23 23 23 23
43 44 45 45 46 45 45 45 44 44 43 43 43 43 42 42 41 40 40 40 39 38 37 36 35 34 33 32 31 31 30 29 29 28 28 27 26 26 25 25 25 24 24
46 47 47 47 47 48 47 46 46 46 46 45 46 45 45 45 44 43 43 43 42 41 40 40 39 37 36 35 34 33 33 32 31 30 29 29 28 27 26 26 25 25 25
49 49 49 49 49 49 48 48 47 47 48 48 48 48 48 47 46 47 46 45 45 44 43 43 42 40 38 37 37 36 35 34 33 32 32 31 30 29 28 27 26 26 26
52 52 51 51 51 51 50 49 49 50 49 49 49 49 49 49 49 49 49 48 48 47 47 45 44 42 41 40 39 38 37 36 35 35 34 33 32 31 30 29 28 28 27
55 55 54 54 53 53 52 51 51 50 50 50 50 50 50 50 50 50 51 51 51 51 50 48 46 45 43 42 41 40 39 38 38 37 36 35 34 33 32 31 30 30 29
57 57 56 55 55 54 54 53 53 51 49 49 50 50 50 50 51 51 52 52 52 52 52 50 49 47 46 45 44 43 42 41 40 39 38 37 36 35 34 33 32 31 31
59 58 58 57 56 56 56 55 53 52 50 49 49 50 50 50 51 52 52 53 53 53 52 52 51 50 49 48 47 46 44 43 41 40 39 38 37 36 35 35 34 33 33
61 60 59 59 58 58 57 55 53 52 51 50 50 50 50 50 50 51 52 53 53 53 53 53 52 51 51 50 49 48 47 45 44 42 41 40 39 38 37 36 35 34 33
63 61 60 60 59 59 57 55 53 52 51 51 50 50 50 50 51 52 53 53 52 53 53 53 52 52 52 52 51 50 49 48 46 44 43 41 40 39 38 37 36 35 34
63 63 62 61 60 58 57 55 54 52 51 50 49 49 49 49 49 50 52 52 52 52 52 53 53 52 52 52 52 51 50 49 48 46 44 43 42 40 39 38 37 36 35
64 63 62 61 59 58 57 55 54 52 50 49 49 48 47 47 46 46 48 49 50 51 51 52 52 52 53 53 52 52 51 49 49 48 46 45 43 42 40 38 37 36 36
63 62 61 60 58 57 56 55 53 51 50 49 48 47 46 46 45 44 45 46 47 49 49 50 51 51 52 52 51 50 50 50 49 49 47 46 44 43 42 40 38 37 36
62 61 60 59 57 56 55 53 51 50 48 47 46 46 45 44 43 43 44 44 45 46 47 49 50 50 51 52 50 49 48 48 48 48 47 46 44 43 42 40 39 38 37
61 59 58 56 54 54 53 51 49 48 47 45 44 43 42 41 41 40 41 40 42 44 46 48 49 49 50 51 49 48 47 47 47 46 46 45 44 43 42 41 40 39 38
Wind_Direction
322 320 319 319 316 315 316 317 319 321 322 325 329 333 338 342 345 345 347 344 338 333 315 275 238 224 214 210 211 209 211 211 215 218 218 218 219 221 223 224 226 228 229
321 320 318 318 316 314 312 312 313 314 316 318 320 323 327 331 335 336 336 336 332 326 312 280 247 231 223 218 214 212 212 216 219 221 221 220 221 224 226 226 227 229 232
321 319 318 316 315 313 311 309 307 307 308 310 312 313 316 319 322 323 323 323 320 316 306 283 256 242 233 224 219 218 218 219 221 222 221 221 224 226 227 228 229 232 235
320 318 317 316 315 313 312 310 307 304 302 302 303 305 306 307 309 311 310 308 306 302 296 286 269 253 243 236 230 227 225 226 226 224 224 225 228 230 229 231 232 233 234
318 317 315 314 312 311 310 309 308 305 301 298 297 297 298 299 298 298 299 298 294 289 285 281 274 261 250 244 239 236 234 234 232 230 231 232 232 232 232 233 235 236 237
317 316 314 312 310 309 307 305 304 303 301 297 294 292 291 292 291 290 289 289 287 283 279 275 270 264 257 252 248 243 240 238 236 236 236 236 235 234 234 235 237 238 239
315 314 313 311 309 307 305 302 301 299 298 296 293 290 287 285 285 284 282 281 280 278 275 271 268 264 260 256 252 247 245 242 240 239 239 239 239 238 238 238 239 240 241
314 313 311 309 307 305 303 300 297 296 294 293 291 289 286 283 280 279 278 276 275 273 271 269 266 263 261 257 254 249 246 245 243 243 242 242 242 242 241 241 241 242 243
312 311 309 308 306 304 302 299 296 293 292 290 287 286 284 281 278 276 274 273 271 270 268 267 264 262 259 257 255 252 250 247 245 244 243 243 243 243 242 242 243 243 244
311 310 308 306 305 302 300 297 295 291 288 286 284 282 281 278 276 273 271 270 269 267 265 264 263 261 258 256 254 253 251 250 248 246 245 245 245 245 244 245 247 247 247
310 309 307 306 304 302 300 297 294 290 286 283 282 280 278 276 274 272 270 268 267 265 264 262 261 260 258 256 254 252 251 250 249 248 248 248 248 248 247 247 248 249 251
308 307 306 305 304 302 299 296 293 290 285 281 279 277 275 273 271 269 268 266 264 263 262 261 260 258 257 255 254 252 251 250 250 249 249 249 250 250 250 250 252 253 254
307 306 306 305 303 302 299 296 292 288 284 279 276 275 273 271 269 268 266 264 262 261 260 259 258 258 256 255 253 252 251 250 250 250 250 250 250 251 252 252 253 254 255
308 307 306 305 304 302 300 296 292 288 283 279 275 273 272 269 267 266 264 262 260 259 258 257 256 256 255 255 253 252 251 250 249 249 249 249 250 251 252 253 253 254 255
308 307 306 305 305 303 301 298 294 290 285 279 275 272 270 267 265 263 262 261 259 258 256 256 255 255 254 254 253 251 250 250 249 249 248 249 249 250 251 252 254 255 256
307 307 306 305 304 302 300 297 295 291 286 281 276 271 268 267 263 261 259 259 257 256 255 253 253 253 253 252 251 251 250 249 248 248 248 248 248 249 251 252 254 255 257
307 306 305 305 303 302 300 298 295 291 287 282 277 273 269 266 263 260 258 256 256 255 254 252 251 250 250 250 250 249 249 249 248 248 247 247 248 249 250 252 253 254 256
306 306 305 304 302 301 300 298 296 292 287 282 278 274 269 265 263 260 257 255 254 254 253 251 250 249 248 248 248 247 247 247 247 247 247 248 248 249 250 251 252 253 255
306 305 305 303 302 301 300 298 296 293 288 283 278 273 269 265 262 259 257 255 254 253 252 251 249 248 246 246 246 246 246 246 246 246 247 248 248 249 250 251 252 254 255
305 304 304 303 302 301 300 298 296 293 290 285 279 274 269 264 261 259 257 256 254 252 250 249 248 246 245 244 244 244 244 245 245 245 246 247 248 249 250 251 252 254 256
304 304 303 303 302 301 300 298 296 293 291 287 281 274 269 265 263 261 259 255 253 250 248 247 245 245 244 243 243 242 243 243 243 244 245 246 247 248 249 250 252 253 256
304 304 304 302 301 300 299 297 295 294 292 289 284 276 270 267 265 263 259 255 252 249 246 244 243 243 242 242 241 241 241 241 242 242 243 244 246 247 248 249 251 253 255
304 303 303 301 300 299 297 296 295 294 292 290 286 279 273 269 266 263 259 253 250 248 245 242 241 241 241 240 240 240 239 240 241 241 241 242 244 245 247 248 250 252 253
303 302 301 300 299 298 296 295 293 293 292 290 287 281 276 271 265 261 257 252 249 245 243 241 239 239 239 238 238 239 239 239 239 240 240 241 243 244 245 247 248 250 252
301 301 300 298 298 297 296 294 292 292 291 290 288 283 278 273 266 260 255 251 246 243 243 241 239 238 238 237 236 237 237 237 238 239 239 240 241 242 244 246 247 249 251
300 300 299 298 297 298 297 294 292 292 292 291 289 284 278 274 268 259 253 250 246 243 242 241 238 237 235 234 234 235 235 235 236 237 238 238 239 241 243 245 247 248 249
Height
5837 5836 5834 5832 5830 5828 5826 5823 5821 5819 5816 5814 5811 5809 5806 5803 5801 5798 5796 5794 5792 5791 5790 5789 5789 5789 5789 5790 5791 5792 5794 5796 5798 5800 5802 5805 5808 5810 5813 5816 5819 5822 5824
5835 5833 5831 5829 5827 5825 5823 5820 5818 5816 5814 5812 5810 5807 5805 5803 5800 5798 5796 5794 5792 5791 5789 5789 5788 5788 5789 5789 5790 5791 5792 5794 5796 5797 5799 5801 5804 5806 5809 5811 5814 5816 5819
5832 5830 5828 5826 5824 5821 5819 5817 5815 5813 5811 5809 5807 5805 5803 5801 5799 5797 5795 5794 5792 5790 5789 5788 5788 5788 5788 5788 5789 5789 5791 5792 5793 5794 5796 5798 5800 5802 5804 5806 5809 5811 5813
5829 5827 5825 5822 5820 5818 5815 5813 5811 5809 5807 5805 5804 5802 5800 5799 5797 5795 5794 5792 5791 5789 5788 5787 5787 5786 5786 5787 5787 5787 5788 5789 5790 5791 5793 5794 5796 5797 5799 5801 5803 5805 5807
5825 5823 5821 5818 5816 5813 5811 5809 5807 5805 5803 5801 5799 5798 5797 5795 5794 5792 5791 5790 5788 5787 5786 5786 5785 5785 5784 5784 5785 5785 5786 5786 5787 5788 5789 5791 5792 5793 5795 5796 5798 5800 5801
5821 5818 5816 5813 5811 5808 5806 5804 5802 5800 5798 5796 5795 5793 5792 5791 5790 5788 5787 5786 5785 5784 5783 5783 5782 5782 5782 5782 5781 5782 5782 5783 5784 5785 5786 5786 5788 5789 5790 5791 5793 5794 5796
5815 5813 5810 5807 5805 5802 5800 5798 5796 5794 5792 5791 5789 5788 5787 5785 5784 5783 5782 5781 5781 5780 5779 5779 5779 5778 5778 5778 5778 5778 5778 5779 5780 5780 5781 5782 5783 5784 5785 5786 5787 5789 5790
5809 5806 5803 5800 5797 5795 5793 5790 5789 5787 5786 5784 5783 5781 5780 5779 5778 5777 5776 5776 5775 5775 5774 5774 5774 5773 5773 5773 5774 5774 5774 5774 5775 5776 5776 5777 5778 5779 5780 5781 5782 5783 5784
5803 5799 5796 5793 5790 5787 5785 5782 5780 5779 5777 5776 5775 5773 5772 5771 5770 5770 5769 5769 5769 5768 5768 5768 5768 5768 5768 5768 5768 5768 5769 5769 5769 5770 5771 5771 5772 5773 5774 5775 5776 5777 5778
5794 5791 5787 5784 5781 5778 5775 5773 5770 5769 5767 5766 5765 5764 5763 5762 5762 5761 5761 5761 5761 5761 5761 5761 5761 5761 5762 5762 5762 5762 5763 5763 5764 5764 5765 5766 5767 5767 5768 5769 5770 5771 5772
5785 5781 5778 5774 5770 5767 5764 5761 5759 5757 5756 5755 5754 5753 5753 5752 5752 5751 5751 5751 5752 5752 5752 5752 5753 5753 5754 5754 5755 5755 5756 5757 5757 5758 5759 5759 5760 5761 5762 5763 5764 5765 5765
5775 5771 5767 5763 5758 5754 5751 5748 5745 5743 5742 5741 5741 5740 5740 5740 5740 5740 5740 5741 5741 5741 5742 5743 5743 5744 5745 5745 5746 5747 5748 5749 5750 5751 5752 5753 5753 5754 5755 5756 5757 5758 5758
5764 5759 5754 5749 5744 5740 5736 5733 5730 5728 5726 5726 5726 5726 5726 5727 5727 5727 5728 5728 5728 5729 5731 5732 5733 5733 5734 5736 5737 5738 5739 5740 5741 5743 5744 5745 5746 5747 5748 5749 5750 5750 5751
5750 5745 5740 5734 5729 5724 5720 5716 5713 5711 5710 5709 5710 5710 5711 5712 5712 5713 5713 5714 5715 5716 5718 5719 5720 5722 5723 5725 5726 5728 5729 5731 5732 5734 5735 5736 5738 5739 5740 5741 5742 5743 5744
5736 5730 5725 5719 5714 5709 5704 5700 5696 5694 5692 5692 5692 5692 5694 5695 5696 5696 5697 5699 5701 5702 5703 5705 5707 5710 5711 5713 5715 5717 5718 5720 5722 5724 5725 5727 5729 5730 5732 5733 5734 5735 5736
5721 5715 5709 5704 5698 5693 5688 5685 5680 5677 5675 5672 5672 5673 5675 5677 5678 5679 5680 5682 5684 5686 5687 5690 5693 5696 5698 5700 5702 5705 5707 5709 5711 5713 5715 5717 5719 5721 5722 5724 5725 5726 5727
5705 5699 5693 5688 5682 5677 5672 5668 5664 5661 5657 5655 5653 5653 5654 5656 5658 5660 5662 5664 5666 5668 5671 5675 5678 5682 5684 5687 5689 5692 5695 5697 5699 5702 5704 5706 5708 5710 5712 5714 5715 5717 5718
5688 5682 5676 5671 5665 5660 5655 5650 5646 5643 5640 5637 5635 5634 5634 5635 5637 5639 5642 5644 5648 5651 5654 5658 5662 5666 5669 5672 5675 5678 5681 5684 5687 5690 5692 5695 5697 5699 5701 5703 5705 5707 5708
5672 5666 5660 5654 5648 5643 5638 5633 5628 5624 5621 5619 5617 5616 5616 5616 5618 5619 5621 5624 5628 5632 5636 5640 5644 5648 5652 5656 5660 5663 5667 5670 5674 5677 5680 5683 5686 5688 5690 5693 5695 5696 5698
5655 5648 5642 5636 5631 5625 5620 5615 5610 5606 5603 5600 5598 5597 5596 5596 5598 5600 5602 5604 5608 5612 5616 5621 5625 5630 5634 5639 5644 5648 5652 5656 5660 5664 5667 5670 5673 5676 5679 5681 5683 5685 5687
5637 5631 5624 5618 5612 5607 5602 5596 5592 5588 5584 5581 5579 5577 5576 5576 5577 5579 5581 5584 5587 5591 5596 5601 5606 5611 5616 5621 5626 5631 5636 5641 5645 5650 5654 5657 5660 5664 5666 5669 5672 5674 5676
5619 5613 5606 5600 5594 5589 5583 5578 5574 5570 5566 5562 5560 5558 5557 5556 5557 5558 5560 5563 5566 5570 5575 5580 5586 5592 5597 5603 5608 5614 5619 5625 5630 5635 5640 5644 5647 5651 5654 5657 5660 5662 5664
5601 5594 5588 5582 5576 5571 5565 5561 5556 5552 5548 5544 5541 5539 5538 5537 5537 5538 5539 5542 5546 5550 5555 5560 5567 5573 5579 5585 5590 5597 5603 5609 5615 5620 5625 5629 5634 5638 5641 5644 5647 5650 5652
5583 5576 5570 5564 5558 5553 5548 5543 5539 5534 5530 5527 5524 5522 5520 5519 5519 5519 5521 5523 5527 5531 5536 5542 5548 5554 5561 5567 5573 5580 5587 5593 5599 5605 5610 5615 5620 5624 5628 5632 5635 5638 5641
5565 5559 5552 5547 5541 5536 5531 5526 5522 5517 5514 5510 5507 5504 5502 5501 5501 5502 5503 5506 5510 5514 5519 5525 5530 5537 5543 5550 5557 5564 5571 5577 5583 5589 5595 5601 5606 5611 5615 5619 5623 5626 5628
5547 5541 5535 5529 5524 5519 5514 5510 5506 5502 5498 5494 5491 5488 5486 5485 5485 5486 5487 5490 5493 5498 5503 5508 5514 5520 5527 5534 5541 5548 5555 5562 5568 5575 5581 5587 5592 5597 5602 5606 5610 5613 5616